PDT,Max TemperatureF,Mean TemperatureF,Min TemperatureF,Max Dew PointF,MeanDew PointF,Min DewpointF,Max Humidity, Mean Humidity, Min Humidity, Max Sea Level PressureIn, Mean Sea Level PressureIn, Min Sea Level PressureIn, Max VisibilityMiles, Mean VisibilityMiles, Min VisibilityMiles, Max Wind SpeedMPH, Mean Wind SpeedMPH, Max Gust SpeedMPH,PrecipitationIn, CloudCover, Events, WindDirDegrees
2013-8-1,86,67,48,49,38,25,46,33,19,29.93,29.89,29.85,,,,16,8,21,0.00,,,191
2013-8-2,88,67,45,50,40,29,66,39,12,29.90,29.87,29.84,,,,21,9,24,0.00,,,196
2013-8-3,88,67,46,53,41,23,71,42,12,29.91,29.89,29.87,,,,22,9,26,0.00,,,157
2013-8-4,90,69,48,52,42,26,72,42,11,29.93,29.90,29.87,,,,20,8,24,0.00,,,155
2013-8-5,92,70,48,49,42,26,66,39,11,29.92,29.90,29.87,,,,20,9,25,0.00,,,182
2013-8-6,91,70,48,50,40,19,74,42,9,29.96,29.92,29.89,,,,22,9,31,0.00,,,235
2013-8-7,87,65,42,46,38,14,74,42,9,29.99,29.95,29.92,,,,21,8,28,0.00,,,222
2013-8-8,90,69,47,48,35,18,71,40,8,29.93,29.89,29.85,,,,18,8,25,0.00,,,318
2013-8-9,85,65,45,49,37,14,70,39,8,29.91,29.87,29.84,,,,18,8,22,0.00,,,214
2013-8-10,84,63,42,48,35,17,66,38,9,29.95,29.92,29.90,,,,21,9,26,0.00,,,185
2013-8-11,88,65,42,50,41,32,71,44,16,29.94,29.89,29.84,,,,21,9,26,0.00,,,184
2013-8-12,91,69,46,51,44,37,71,45,19,29.89,29.87,29.83,,,,20,9,24,0.00,,,110
2013-8-13,96,73,49,54,42,20,71,39,7,29.90,29.86,29.81,,,,21,6,24,0.00,,,58
2013-8-14,98,76,54,51,41,33,57,35,13,29.87,29.83,29.79,,,,18,8,22,0.00,,,56
2013-8-15,97,78,58,47,37,24,37,23,9,29.89,29.85,29.83,,,,21,8,25,0.00,,,101
2013-8-16,97,79,60,49,39,20,39,24,8,29.91,29.88,29.84,,,,20,9,25,0.00,,,158
2013-8-17,98,78,58,53,48,44,55,38,20,29.90,29.84,29.77,,,,22,9,26,0.00,,,166
2013-8-18,99,80,61,53,49,45,56,38,20,29.90,29.80,29.76,,,,20,8,24,0.00,,,189
2013-8-19,95,79,62,56,50,42,56,40,24,29.95,29.84,29.80,,,,23,8,28,0.00,,,69
2013-8-20,96,76,55,52,42,26,69,39,9,29.86,29.83,29.78,,,,18,8,23,0.00,,,152
2013-8-21,100,78,56,51,41,30,51,31,11,29.87,29.83,29.78,,,,17,7,23,0.00,,,338
2013-8-22,100,81,61,46,42,39,48,32,15,29.86,29.82,29.76,,,,21,7,30,0.00,,,334
2013-8-23,99,79,59,59,47,39,54,36,17,29.86,29.77,29.69,,,,35,5,48,0.00,,,83
2013-8-24,96,77,58,63,50,38,60,37,13,29.87,29.78,29.71,,,,29,8,37,0.00,,,68
2013-8-25,87,77,66,67,61,55,84,60,36,29.95,29.85,29.79,,,,26,8,33,0.04,,,69
2013-8-26,80,74,68,67,64,62,90,74,58,29.91,29.85,29.81,,,,21,11,26,0.11,,,58
2013-8-27,90,78,66,63,60,56,87,62,36,29.81,29.77,29.73,,,,18,7,24,0.00,,,114
2013-8-28,95,78,61,61,57,54,84,56,28,29.86,29.80,29.75,,,,21,8,26,0.00,,,227
2013-8-29,83,75,66,67,63,56,73,66,58,29.95,29.90,29.84,,,,28,10,39,0.00,,,62
2013-8-30,91,82,73,66,64,61,79,59,38,29.96,29.92,29.86,,,,20,8,23,0.00,,,97
2013-8-31,91,80,68,68,64,62,84,63,41,29.93,29.89,29.83,,,,22,7,31,0.00,,,242